Flag for U.S.A. Weather past 2 weeks in Baker Island, U.S.A.

Now
84 °F

Passing clouds.


Feels Like: 92 °F
Forecast: 80 / 86 °F
Wind: 2 mph from North

Location: Funafuti

Current Time: Mar 29, 2015 at 9:31:24 PM

Latest Report: Mar 29, 2015 at 9:00 PM


Visibility: N/A

Pressure: 29.86 "Hg

Humidity: 74%

Dew point: 75 °F

Location of Baker IslandLocation

Historic Weather in Baker Island — Graph

°F

Baker Island temperature yesterday

Maximum temperature yesterday: 90 °F (at 9:00 AM)
Minimum temperature yesterday: 82 °F (at 1:00 AM)
Average temperature yesterday: 86 °F

Past Weeks' High & Low Weather Summary

 TemperatureHumidityPressure
High90 °F (Mar 16, 1:00 PM)94% (Mar 17, 10:00 PM)30.25 "Hg (Mar 17, 10:00 PM)
Low77 °F (Mar 17, 11:00 AM)62% (Mar 28, 5:00 PM)29.56 "Hg (Mar 15, 1:00 AM)
Average84 °F78%29.80 "Hg
* Reported Mar 14 7:00 PM — Mar 29 7:00 PM, Baker Island, Weather by CustomWeather, © 2015

Note: Actual official high and low records may vary slightly from our data, if they occured in-between our weather recording intervals... More about our weather records

Advertising

Baker Island weather history for previous 24 hours

 ConditionsComfort  
Time TempWeatherWind HumidityBarometerVisibility
7:00 PM
Sun, Mar 29
84 °FPassing clouds.2 mph74%29.83 "HgN/A
6:00 PM86 °FPassing clouds.1 mph70%29.80 "HgN/A
5:00 PM88 °FPassing clouds.2 mph70%29.80 "HgN/A
4:00 PM88 °FPassing clouds.3 mph70%29.77 "HgN/A
3:00 PM88 °FPassing clouds.1 mph66%29.77 "HgN/A
2:00 PM90 °FPassing clouds.3 mph67%29.77 "HgN/A
1:00 PMN/APassing clouds.2 mphN/A29.80 "HgN/A
12:00 PM90 °FPassing clouds.1 mph63%29.83 "HgN/A
11:00 AM90 °FScattered clouds.2 mph67%29.86 "HgN/A
10:00 AM88 °FPassing clouds.2 mph70%29.86 "HgN/A
9:00 AM88 °FPassing clouds.1 mph70%29.86 "HgN/A
8:00 AM86 °FPassing clouds.1 mph70%29.86 "HgN/A
7:00 AM82 °FPartly sunny.2 mph79%29.83 "HgN/A
6:00 AM82 °FOvercast.No wind79%29.83 "HgN/A
5:00 AMN/APassing clouds.1 mphN/A30.25 "HgN/A
4:00 AM84 °FPassing clouds.2 mph79%29.80 "HgN/A
3:00 AM84 °FPassing clouds.2 mph79%29.83 "HgN/A
2:00 AM84 °FPassing clouds.2 mph79%29.83 "HgN/A
1:00 AM84 °FPassing clouds.No wind79%29.83 "HgN/A
12:00 AM84 °FPassing clouds.No wind79%29.86 "HgN/A
11:00 PM
Sat, Mar 28
84 °FPassing clouds.No wind74%29.86 "HgN/A
10:00 PM84 °FPassing clouds.1 mph74%29.86 "HgN/A
9:00 PM84 °FPassing clouds.2 mph74%29.86 "HgN/A
Weather by CustomWeather, © 2015

See weather overviewHow to use our weather pages